Location: Lake Hudson State Recreational Area
(41.8372°N, 84.2445°W)
Time: 21:21:19
(UTC-04:00)

Amateur Radio Satellites - All Passes

Search period start: 19 October 2017 20:51
Search period end: 20 October 2017 20:51
Location: Lake Hudson State Recreational Area, 41.8372°N, 84.2445°W

Satellite Date Start Highest point End Downlink Frequencies (MHz)
Time Altitude Azimuth
ZACube-1 19 Oct 21:02:41 21:07:16 82° 77° (ENE) 21:11:52 437.345
UWE-3 19 Oct 21:23:46 21:27:58 34° 264° (W) 21:32:13 435.000/436.395/437.385
O/OREOS (USA 219) 19 Oct 21:24:51 21:29:06 41° 106° (ESE) 21:33:24 437.305
YUBILEINY 19 Oct 21:25:02 21:33:46 63° 78° (ENE) 21:42:30 435.215
Max Valier Satellite 19 Oct 21:35:07 21:37:24 16° 66° (ENE) 21:39:41 145.860
STRAND 1 19 Oct 21:35:37 21:40:43 61° 288° (WNW) 21:45:46 437.568
BEESAT 2 19 Oct 21:39:37 21:42:13 16° 42° (NE) 21:44:47 435.950
SEEDS 19 Oct 21:40:22 21:41:36 11° 270° (W) 21:42:50 437.485
HO-68 19 Oct 21:40:34 21:45:01 17° 270° (W) 21:49:30 435.675
Oscar 11 19 Oct 21:41:22 21:45:39 62° 259° (W) 21:49:57 .
FO-29 19 Oct 21:55:54 22:02:28 43° 98° (E) 22:09:36 435.910
BEESAT 3 19 Oct 21:57:29 22:01:27 63° 55° (NE) 22:05:19 437.485
DELFI C3 19 Oct 22:03:42 22:07:27 48° 73° (ENE) 22:11:13 145.870
AAUSAT CUBESAT 2 19 Oct 22:06:04 22:07:51 12° 270° (W) 22:09:38 437.432
UNISAT 6 19 Oct 22:17:55 22:20:05 13° 89° (E) 22:22:13 437.425
AO-73 19 Oct 22:18:56 22:22:10 19° 268° (W) 22:25:25 145.935
TIGRISAT 19 Oct 22:32:13 22:35:16 17° 91° (E) 22:38:14 435.000
AO-85 19 Oct 22:33:34 22:37:47 38° 50° (NE) 22:42:18 145.980
EO-88 19 Oct 22:59:06 23:02:43 65° 258° (WSW) 23:06:22 145.990 - 145.960
O/OREOS (USA 219) 19 Oct 23:05:08 23:08:41 22° 304° (NW) 23:12:15 437.305
Max Valier Satellite 19 Oct 23:07:27 23:10:55 36° 262° (W) 23:14:24 145.860
BEESAT 2 19 Oct 23:16:20 23:20:20 62° 241° (WSW) 23:24:15 435.950
YUBILEINY 19 Oct 23:22:48 23:29:53 28° 278° (W) 23:36:59 435.215
RS-15 19 Oct 23:28:49 23:33:29 13° 93° (E) 23:38:07 29.354- 29.394
PRISM 19 Oct 23:35:17 23:39:05 35° 98° (E) 23:42:53 437.425
ESTCUBE 1 19 Oct 23:36:17 23:40:16 32° 69° (ENE) 23:44:16 437.505/2401.250
BEESAT 3 19 Oct 23:37:14 23:38:25 11° 252° (WSW) 23:39:36 437.485
DELFI C3 19 Oct 23:40:50 23:42:28 12° 269° (W) 23:44:07 145.870
FO-29 19 Oct 23:41:09 23:47:22 39° 293° (WNW) 23:54:11 435.910
LO-87 19 Oct 23:50:55 23:54:28 63° 75° (ENE) 23:58:04 145.935 - 145.965
UNISAT 6 19 Oct 23:52:38 23:57:13 62° 286° (WNW) 00:01:40 437.425
TIGRISAT 20 Oct 00:07:45 00:12:12 47° 288° (WNW) 00:16:31 435.000
AO-85 20 Oct 00:14:09 00:18:05 28° 246° (WSW) 00:22:15 145.980
SPROUT 20 Oct 00:25:44 00:29:18 26° 68° (ENE) 00:32:53 437.525
EO-79 20 Oct 00:57:45 01:01:27 28° 96° (E) 01:05:07 145.935-145.965
AIST 2D 20 Oct 00:58:23 01:01:52 87° 275° (W) 01:05:18 435.315
POLYITAN 1 20 Oct 01:02:12 01:06:02 31° 97° (E) 01:09:49 437.675
VELOX 1 20 Oct 01:04:53 01:09:06 49° 72° (ENE) 01:13:20 145.980
PRISM 20 Oct 01:11:07 01:14:07 20° 294° (WNW) 01:17:07 437.425
ESTCUBE 1 20 Oct 01:13:26 01:17:06 24° 265° (W) 01:20:45 437.505/2401.250
QB50P2 20 Oct 01:22:09 01:26:23 60° 101° (ESE) 01:30:34 145.880/145.840
NANOSAT C BR1 20 Oct 01:26:04 01:30:14 52° 100° (E) 01:34:21 145.865
RS-15 20 Oct 01:31:19 01:43:18 63° 114° (ESE) 01:55:19 29.354- 29.394
DUCHIFAT 1 20 Oct 01:37:08 01:41:21 61° 100° (E) 01:45:31 145.980
BUGSAT 1 20 Oct 01:48:03 01:51:13 20° 94° (E) 01:54:20 437.445
SPROUT 20 Oct 02:01:26 02:05:06 27° 264° (W) 02:08:47 437.525
Gurwin Techsat 1B 20 Oct 02:05:58 02:07:58 12° 88° (E) 02:09:57 435.225
DX 1 20 Oct 02:12:57 02:17:13 67° 74° (ENE) 02:21:32 434.975-435.025
50 SAT 20 Oct 02:15:23 02:18:38 86° 260° (W) 02:21:56 437.505
EO-79 20 Oct 02:33:34 02:37:05 25° 292° (WNW) 02:40:34 145.935-145.965
UKube-1 20 Oct 02:38:10 02:42:27 81° 75° (ENE) 02:46:46 .
POLYITAN 1 20 Oct 02:38:16 02:41:38 23° 293° (WNW) 02:44:58 437.675
VELOX 1 20 Oct 02:43:14 02:45:49 15° 268° (W) 02:48:24 145.980
M-CUBED/EXP-1 PRIME 20 Oct 02:46:50 02:49:45 23° 102° (ESE) 02:52:49 437.505
QB50P2 20 Oct 02:59:37 03:01:39 13° 297° (WNW) 03:03:41 145.880/145.840
NANOSAT C BR1 20 Oct 03:03:07 03:05:30 15° 296° (WNW) 03:07:50 145.865
MOZHAYETS 4 20 Oct 03:08:27 03:12:11 25° 67° (ENE) 03:15:55
DUCHIFAT 1 20 Oct 03:14:35 03:16:29 13° 297° (WNW) 03:18:22 145.980
Oscar 19 20 Oct 03:16:00 03:21:10 81° 104° (ESE) 03:26:17 437.125/150
AO-7 20 Oct 03:18:26 03:19:54 10° 86° (E) 03:21:21 .
BUGSAT 1 20 Oct 03:22:48 03:26:38 34° 290° (WNW) 03:30:25 437.445
ITUPSAT 1 20 Oct 03:31:56 03:36:23 39° 69° (ENE) 03:40:51 437.325
NO-84 20 Oct 03:35:38 03:39:17 27° 128° (SE) 03:42:55 435.350 FM
Gurwin Techsat 1B 20 Oct 03:43:12 03:48:33 83° 285° (WNW) 03:53:52 435.225
RS-15 20 Oct 03:44:37 03:56:22 47° 318° (NW) 04:08:05 29.354- 29.394
BEESAT 20 Oct 03:47:32 03:52:12 56° 72° (ENE) 03:56:55 436.000
DX 1 20 Oct 03:52:47 03:53:51 11° 270° (W) 03:54:54 434.975-435.025
M-CUBED/EXP-1 PRIME 20 Oct 04:21:15 04:24:07 24° 295° (WNW) 04:27:08 437.505
KKS-1 20 Oct 04:40:28 04:42:57 15° 62° (ENE) 04:45:25 437.445
MOZHAYETS 4 20 Oct 04:44:55 04:49:09 35° 263° (W) 04:53:24
CUBESAT XI-V 20 Oct 04:54:21 04:58:56 65° 74° (ENE) 05:03:31 437.345
Oscar 19 20 Oct 04:57:18 04:59:47 14° 301° (WNW) 05:02:15 437.125/150
AO-7 20 Oct 05:05:56 05:14:11 64° 104° (ESE) 05:22:25 .
ITUPSAT 1 20 Oct 05:10:31 05:14:18 23° 266° (W) 05:18:07 437.325
NO-84 20 Oct 05:12:22 05:16:33 48° 325° (NW) 05:20:39 435.350 FM
STARS 20 Oct 05:14:47 05:17:00 14° 62° (ENE) 05:19:14 437.465
Gurwin Techsat 1B 20 Oct 05:25:43 05:27:38 12° 303° (WNW) 05:29:34 435.225
ITAMSAT 1 20 Oct 05:26:44 05:32:00 85° 104° (ESE) 05:37:15 435.822/435.867
BEESAT 20 Oct 05:27:28 05:30:18 16° 268° (W) 05:33:11 436.000
O/OREOS (USA 219) 20 Oct 05:57:29 05:58:42 11° 48° (NE) 05:59:54 437.305
RS-15 20 Oct 06:03:35 06:13:02 24° 350° (N) 06:22:19 29.354- 29.394
KKS-1 20 Oct 06:14:39 06:19:00 57° 259° (W) 06:23:24 437.445
DOVE 4 20 Oct 06:23:15 06:28:02 45° 98° (E) 06:33:00 437.250
CUBESAT XI-V 20 Oct 06:34:45 06:36:43 12° 270° (W) 06:38:42 437.345
STARS 20 Oct 06:48:29 06:52:49 61° 259° (WSW) 06:57:11 437.465
NO-84 20 Oct 06:52:02 06:54:46 16° 344° (NNW) 06:57:27 435.350 FM
XW-2C 20 Oct 06:56:47 06:59:31 19° 94° (E) 07:02:14 145.795 - 145.815
AO-7 20 Oct 06:59:26 07:06:25 32° 304° (WNW) 07:13:24 .
ITAMSAT 1 20 Oct 07:08:12 07:10:44 14° 302° (WNW) 07:13:15 435.822/435.867
STRAND 1 20 Oct 07:13:47 07:17:54 25° 65° (ENE) 07:22:02 437.568
HO-68 20 Oct 07:18:52 07:22:48 15° 88° (E) 07:26:43 435.675
SO-50 20 Oct 07:26:24 07:30:30 36° 116° (ESE) 07:34:37 436.795
CUTE-I 20 Oct 07:33:06 07:38:13 43° 99° (E) 07:43:18 437.470
O/OREOS (USA 219) 20 Oct 07:34:14 07:38:52 84° 66° (ENE) 07:43:27 437.305
CUTE 1.7 + AOD 2 20 Oct 07:38:31 07:40:34 13° 91° (E) 07:42:36 437.475
KAITUO 1B 20 Oct 07:40:07 07:43:42 47° 99° (E) 07:47:15 145.475/437.950
XW-2F 20 Oct 07:41:15 07:44:58 65° 101° (E) 07:48:38 145.980 - 146.000
LilacSat-2 20 Oct 07:45:41 07:49:28 87° 103° (ESE) 07:53:14 437.200
XW-2D 20 Oct 07:53:22 07:57:06 78° 285° (WNW) 08:00:50 145.860 - 145.880
NUDT-PHONESAT 20 Oct 07:54:50 07:58:30 72° 102° (ESE) 08:02:07 437.300
DOVE 4 20 Oct 08:01:34 08:05:25 23° 294° (WNW) 08:09:25 437.250
XW-2B 20 Oct 08:06:53 08:10:33 54° 286° (WNW) 08:14:11 145.730 - 145.750
FO-29 20 Oct 08:12:06 08:15:02 15° 57° (ENE) 08:18:05 435.910
RS-15 20 Oct 08:20:32 08:30:54 31° 26° (NNE) 08:40:48 29.354- 29.394
XW-2C 20 Oct 08:30:29 08:33:42 28° 290° (WNW) 08:36:54 145.795 - 145.815
NO-84 20 Oct 08:31:39 08:33:34 13° 5° (N) 08:35:25 435.350 FM
CUBEBUG 2 20 Oct 08:34:08 08:38:22 34° 96° (E) 08:42:28 437.445
YUBILEINY 20 Oct 08:36:05 08:39:24 13° 73° (ENE) 08:42:44 435.215
STRAND 1 20 Oct 08:52:00 08:56:49 41° 261° (W) 09:01:42 437.568
ZACube-1 20 Oct 08:52:11 08:54:46 15° 91° (E) 08:57:18 437.345
HO-68 20 Oct 09:04:12 09:11:27 87° 106° (ESE) 09:18:40 435.675
PCSat 20 Oct 09:05:15 09:10:28 52° 114° (ESE) 09:15:45 145.827
SO-50 20 Oct 09:07:09 09:11:01 28° 314° (NW) 09:14:54 436.795
CUTE 1.7 + AOD 2 20 Oct 09:12:36 09:16:42 51° 286° (WNW) 09:20:46 437.475
UWE-3 20 Oct 09:12:42 09:17:05 49° 99° (E) 09:21:19 435.000/436.395/437.385
CUTE-I 20 Oct 09:13:39 09:18:00 26° 296° (WNW) 09:22:22 437.470
KAITUO 1B 20 Oct 09:15:47 09:17:15 12° 295° (WNW) 09:18:43 145.475/437.950
UNISAT 6 20 Oct 09:17:10 09:19:27 14° 61° (ENE) 09:21:44 437.425
SEEDS 20 Oct 09:20:09 09:24:18 70° 285° (WNW) 09:28:27 437.485
Oscar 11 20 Oct 09:28:41 09:32:07 23° 94° (E) 09:35:32 .
TIGRISAT 20 Oct 09:31:10 09:34:11 17° 63° (ENE) 09:37:13 435.000
XW-2A 20 Oct 09:32:34 09:35:55 74° 283° (WNW) 09:39:13 145.665 - 145.685
AAUSAT CUBESAT 2 20 Oct 09:44:46 09:48:54 84° 284° (WNW) 09:53:02 437.432
FO-29 20 Oct 09:54:09 09:59:21 75° 257° (WSW) 10:04:57 435.910
AO-73 20 Oct 10:05:01 10:09:25 87° 108° (ESE) 10:13:39 145.935
NO-84 20 Oct 10:08:48 10:12:08 25° 26° (NNE) 10:15:14 435.350 FM
CUBEBUG 2 20 Oct 10:11:01 10:14:48 25° 293° (WNW) 10:18:27 437.445
PRISM 20 Oct 10:24:52 10:28:14 26° 68° (ENE) 10:31:37 437.425
YUBILEINY 20 Oct 10:25:53 10:34:29 72° 93° (E) 10:43:10 435.215
nSIGHT-1 20 Oct 10:26:04 10:28:45 25° 135° (SE) 10:31:26 .
ZACube-1 20 Oct 10:27:06 10:31:20 47° 288° (WNW) 10:35:26 437.345
RS-15 20 Oct 10:33:40 10:45:43 77° 55° (NE) 10:57:03 29.354- 29.394
Max Valier Satellite 20 Oct 10:37:23 10:40:00 18° 94° (E) 10:42:35 145.860
PCSat 20 Oct 10:49:40 10:54:09 26° 313° (NW) 10:58:40 145.827
UWE-3 20 Oct 10:50:12 10:53:05 17° 296° (WNW) 10:55:55 435.000/436.395/437.385
UNISAT 6 20 Oct 10:50:54 10:55:31 71° 258° (WSW) 11:00:14 437.425
HO-68 20 Oct 10:53:25 10:58:16 20° 305° (NW) 11:03:07 435.675
ISS 20 Oct 10:57:56 11:01:03 45° 140° (SE) 11:04:12 437.550
Oscar 11 20 Oct 11:04:28 11:08:16 31° 291° (WNW) 11:12:03 .
TIGRISAT 20 Oct 11:05:52 11:10:24 54° 260° (W) 11:15:02 435.000
DELFI C3 20 Oct 11:14:23 11:18:22 78° 102° (ESE) 11:22:19 145.870
AIST 2D 20 Oct 11:32:40 11:35:48 31° 72° (ENE) 11:38:57 435.315
NO-84 20 Oct 11:46:04 11:49:45 51° 226° (SW) 11:53:06 435.350 FM
EO-79 20 Oct 11:50:28 11:53:48 23° 67° (ENE) 11:57:10 145.935-145.965
POLYITAN 1 20 Oct 11:54:58 11:58:29 25° 68° (ENE) 12:02:01 437.675
PRISM 20 Oct 12:00:06 12:03:26 25° 264° (W) 12:06:47 437.425
EO-88 20 Oct 12:00:48 12:04:19 50° 286° (WNW) 12:07:50 145.990 - 145.960
nSIGHT-1 20 Oct 12:01:53 12:04:54 39° 332° (NNW) 12:07:57 .
Max Valier Satellite 20 Oct 12:10:41 12:13:50 28° 290° (WNW) 12:16:59 145.860
QB50P2 20 Oct 12:14:34 12:18:38 45° 72° (ENE) 12:22:45 145.880/145.840
NANOSAT C BR1 20 Oct 12:18:01 12:21:59 39° 71° (ENE) 12:25:58 145.865
YUBILEINY 20 Oct 12:25:14 12:32:06 26° 295° (WNW) 12:39:04 435.215
DUCHIFAT 1 20 Oct 12:28:43 12:32:45 45° 72° (ENE) 12:36:50 145.980
ISS 20 Oct 12:34:46 12:37:38 28° 337° (NNW) 12:40:32 437.550
BUGSAT 1 20 Oct 12:38:28 12:41:00 16° 64° (ENE) 12:43:34 437.445
RS-15 20 Oct 12:47:24 12:56:53 30° 257° (WSW) 13:06:01 29.354- 29.394
LO-87 20 Oct 12:50:29 12:54:08 77° 102° (ESE) 12:57:45 145.935 - 145.965
Oscar 19 20 Oct 12:56:22 12:59:29 16° 61° (ENE) 13:02:36 437.125/150
ESTCUBE 1 20 Oct 13:04:19 13:08:47 68° 101° (E) 13:13:14 437.505/2401.250
AIST 2D 20 Oct 13:07:02 13:09:04 15° 268° (W) 13:11:05 435.315
BEESAT 2 20 Oct 13:08:11 13:11:07 20° 112° (ESE) 13:14:06 435.950
BEESAT 3 20 Oct 13:23:50 13:27:50 80° 303° (WNW) 13:31:53 437.485
EO-79 20 Oct 13:25:34 13:29:23 32° 264° (W) 13:33:14 145.935-145.965
Gurwin Techsat 1B 20 Oct 13:26:25 13:30:23 22° 63° (ENE) 13:34:22 435.225
POLYITAN 1 20 Oct 13:30:26 13:34:08 28° 264° (W) 13:37:53 437.675
M-CUBED/EXP-1 PRIME 20 Oct 13:33:14 13:36:10 28° 66° (ENE) 13:39:02 437.505
nSIGHT-1 20 Oct 13:39:49 13:41:50 15° 352° (N) 13:43:52 .
SPROUT 20 Oct 13:45:51 13:50:01 46° 99° (E) 13:54:08 437.525
QB50P2 20 Oct 13:52:02 13:54:39 16° 268° (W) 13:57:17 145.880/145.840
NANOSAT C BR1 20 Oct 13:54:55 13:57:50 18° 267° (W) 14:00:46 145.865
DX 1 20 Oct 14:03:05 14:04:22 11° 90° (E) 14:05:39 434.975-435.025
DUCHIFAT 1 20 Oct 14:06:04 14:08:38 16° 268° (W) 14:11:13 145.980
BUGSAT 1 20 Oct 14:11:55 14:15:57 47° 261° (W) 14:20:03 437.445
ISS 20 Oct 14:12:57 14:14:55 15° 357° (N) 14:16:53 437.550
AO-7 20 Oct 14:15:51 14:21:36 21° 50° (NE) 14:27:20 .
UKube-1 20 Oct 14:26:32 14:28:29 13° 91° (E) 14:30:25 .
AO-85 20 Oct 14:28:34 14:32:26 85° 303° (WNW) 14:36:25 145.980
VELOX 1 20 Oct 14:30:25 14:34:52 85° 283° (WNW) 14:39:19 145.980
Oscar 19 20 Oct 14:33:05 14:38:14 68° 258° (WSW) 14:43:23 437.125/150
ESTCUBE 1 20 Oct 14:42:59 14:45:01 13° 298° (WNW) 14:47:02 437.505/2401.250
BEESAT 2 20 Oct 14:44:50 14:48:36 38° 309° (NW) 14:52:25 435.950
BEESAT 3 20 Oct 15:04:40 15:06:03 11° 322° (NW) 15:07:26 437.485
Gurwin Techsat 1B 20 Oct 15:04:48 15:09:57 51° 260° (W) 15:15:08 435.225
50 SAT 20 Oct 15:05:58 15:09:18 80° 103° (ESE) 15:12:35 437.505
ITAMSAT 1 20 Oct 15:07:48 15:11:15 18° 61° (ENE) 15:14:41 435.822/435.867
M-CUBED/EXP-1 PRIME 20 Oct 15:08:38 15:10:40 15° 260° (W) 15:12:40 437.505
nSIGHT-1 20 Oct 15:16:51 15:19:03 17° 12° (NNE) 15:21:16 .
SPROUT 20 Oct 15:22:48 15:25:31 17° 296° (WNW) 15:28:15 437.525
DX 1 20 Oct 15:36:37 15:40:58 67° 286° (WNW) 15:45:18 434.975-435.025
BEESAT 20 Oct 15:48:54 15:51:19 14° 91° (E) 15:53:41 436.000
ISS 20 Oct 15:49:41 15:52:18 21° 18° (NNE) 15:54:53 437.550
SO-50 20 Oct 15:56:52 16:01:10 38° 50° (NE) 16:05:31 436.795
UKube-1 20 Oct 16:00:35 16:04:50 57° 287° (WNW) 16:09:04 .
AO-7 20 Oct 16:04:56 16:13:14 86° 70° (ENE) 16:21:34 .
AO-85 20 Oct 16:12:09 16:13:31 11° 324° (NW) 16:14:53 145.980
MOZHAYETS 4 20 Oct 16:39:02 16:43:31 52° 100° (E) 16:47:57
ITAMSAT 1 20 Oct 16:45:04 16:50:11 62° 259° (WSW) 16:55:22 435.822/435.867
CUBESAT XI-V 20 Oct 16:51:44 16:54:29 16° 91° (E) 16:57:13 437.345
nSIGHT-1 20 Oct 16:52:42 16:55:52 55° 31° (NNE) 16:59:01 .
ITUPSAT 1 20 Oct 17:09:15 17:14:05 88° 104° (ESE) 17:18:52 437.325
CUTE-I 20 Oct 17:20:39 17:21:19 10° 56° (NE) 17:21:59 437.470
BEESAT 20 Oct 17:24:45 17:29:30 64° 287° (WNW) 17:34:12 436.000
ISS 20 Oct 17:25:49 17:29:06 85° 217° (SW) 17:32:22 437.550
DOVE 4 20 Oct 17:29:27 17:33:21 40° 71° (ENE) 17:37:26 437.250
SO-50 20 Oct 17:37:37 17:41:29 26° 247° (WSW) 17:45:22 436.795
XW-2C 20 Oct 17:40:03 17:41:04 11° 64° (ENE) 17:42:06 145.795 - 145.815
HO-68 20 Oct 17:49:54 17:53:13 14° 50° (NE) 17:56:31 435.675
PCSat 20 Oct 17:52:42 17:57:55 45° 54° (NE) 18:03:05 145.827
AO-7 20 Oct 18:01:19 18:06:55 20° 269° (W) 18:12:34 .
KKS-1 20 Oct 18:05:29 18:09:14 25° 96° (E) 18:12:56 437.445
MOZHAYETS 4 20 Oct 18:17:20 18:20:14 17° 297° (WNW) 18:23:09
KAITUO 1B 20 Oct 18:20:28 18:23:27 23° 69° (ENE) 18:26:25 145.475/437.950
XW-2F 20 Oct 18:22:10 18:25:31 31° 71° (ENE) 18:28:52 145.980 - 146.000
LilacSat-2 20 Oct 18:27:28 18:31:05 42° 73° (ENE) 18:34:42 437.200
CUBESAT XI-V 20 Oct 18:27:41 18:32:09 52° 287° (WNW) 18:36:36 437.345
nSIGHT-1 20 Oct 18:29:40 18:31:51 17° 228° (SW) 18:34:03 .
CUTE 1.7 + AOD 2 20 Oct 18:32:52 18:33:51 11° 62° (ENE) 18:34:50 437.475
NUDT-PHONESAT 20 Oct 18:33:56 18:37:15 31° 72° (ENE) 18:40:35 437.300
XW-2D 20 Oct 18:34:20 18:38:01 48° 74° (ENE) 18:41:41 145.860 - 145.880
STARS 20 Oct 18:37:53 18:41:24 23° 95° (E) 18:44:54 437.465
XW-2B 20 Oct 18:47:41 18:51:27 69° 76° (ENE) 18:55:15 145.730 - 145.750
ITUPSAT 1 20 Oct 18:49:37 18:51:09 11° 301° (WNW) 18:52:41 437.325
CUTE-I 20 Oct 18:55:07 19:00:24 72° 73° (ENE) 19:05:44 437.470
DOVE 4 20 Oct 19:08:33 19:11:17 17° 269° (W) 19:14:06 437.250
XW-2C 20 Oct 19:11:00 19:14:45 57° 260° (W) 19:18:30 145.795 - 145.815
CUBEBUG 2 20 Oct 19:32:00 19:36:04 30° 68° (ENE) 19:40:12 437.445
HO-68 20 Oct 19:32:32 19:39:36 67° 70° (ENE) 19:46:44 435.675
PCSat 20 Oct 19:36:36 19:41:03 26° 252° (WSW) 19:45:29 145.827
KKS-1 20 Oct 19:41:49 19:45:46 31° 291° (WNW) 19:49:41 437.445
ZACube-1 20 Oct 19:48:25 19:50:54 15° 63° (ENE) 19:53:24 437.345
KAITUO 1B 20 Oct 19:54:19 19:57:20 23° 265° (W) 20:00:22 145.475/437.950
XW-2F 20 Oct 19:57:05 19:59:40 18° 267° (W) 20:02:16 145.980 - 146.000
LilacSat-2 20 Oct 20:03:36 20:05:33 13° 268° (W) 20:07:29 437.200
XW-2A 20 Oct 20:03:36 20:06:43 33° 73° (ENE) 20:09:50 145.665 - 145.685
CUTE 1.7 + AOD 2 20 Oct 20:04:51 20:09:04 74° 258° (WSW) 20:13:18 437.475
NUDT-PHONESAT 20 Oct 20:08:45 20:11:11 17° 267° (W) 20:13:37 437.300
UWE-3 20 Oct 20:09:12 20:13:34 41° 71° (ENE) 20:17:59 435.000/436.395/437.385
XW-2D 20 Oct 20:11:09 20:12:27 11° 269° (W) 20:13:45 145.860 - 145.880
SEEDS 20 Oct 20:11:28 20:15:38 80° 77° (ENE) 20:19:49 437.485
STARS 20 Oct 20:13:46 20:17:47 34° 291° (WNW) 20:21:45 437.465
Oscar 11 20 Oct 20:24:01 20:27:07 19° 66° (ENE) 20:30:13 .
AAUSAT CUBESAT 2 20 Oct 20:34:36 20:38:38 63° 75° (ENE) 20:42:42 437.432
CUTE-I 20 Oct 20:38:11 20:40:58 14° 270° (W) 20:43:46 437.470
